Lapse_Rate
5.4 3.5 2.3 1.5 0.8 1.1 0.8 1.7 0.5 0.0 0.3 0.0 0.0 0.7 1.5 1.9 2.6 2.4 2.2 2.5 2.1 2.1 3.1 3.6 3.9 4.2 5.3 4.7 3.9 4.1 3.9 2.1 2.7 1.9 2.2 2.0 2.1 2.0 2.2 2.4 2.6 3.1 3.2
4.7 3.7 2.4 1.3 0.3 0.4 0.8 2.4 1.3 -0.5 0.8 1.4 1.1 2.1 1.9 1.2 1.5 1.4 1.7 2.0 2.2 2.5 3.3 3.7 3.8 4.0 4.7 5.0 4.1 3.3 2.9 2.3 2.5 2.9 3.5 3.8 3.4 2.8 1.8 1.1 1.6 2.5 2.0
4.6 3.9 2.5 0.8 -0.2 -0.4 0.5 2.1 1.2 0.3 1.5 1.7 -0.2 -0.0 1.4 1.1 1.0 1.4 1.0 1.0 2.1 2.6 3.1 3.5 3.9 3.9 4.0 4.5 4.3 4.1 3.6 2.8 2.6 3.0 3.6 5.0 5.0 3.3 2.2 1.7 1.1 1.1 1.7
3.0 2.8 1.9 0.6 -0.1 -0.2 0.3 0.9 0.5 0.8 1.2 0.1 1.1 1.2 2.5 2.1 1.7 1.2 -0.2 -0.4 0.0 0.9 1.2 2.3 2.7 3.3 3.3 4.0 3.9 3.4 3.5 3.3 2.6 2.9 2.6 3.0 3.8 5.0 4.0 1.9 1.6 0.9 0.6
3.5 3.4 1.8 -0.3 -0.2 -0.1 0.1 0.4 0.7 0.9 0.2 1.2 2.2 2.2 2.8 3.6 1.4 0.8 0.5 -0.9 -1.4 -1.6 -1.3 -0.5 0.6 1.4 1.6 2.4 2.9 2.1 2.9 3.0 3.5 3.4 2.6 2.7 2.6 2.5 3.1 3.0 2.9 2.0 1.5
2.9 3.1 1.4 -0.4 0.1 0.2 0.0 -0.0 0.4 0.2 1.5 2.3 2.7 3.0 2.3 1.7 1.3 0.5 0.3 -0.5 -1.0 -1.0 -1.0 -0.9 -0.2 0.3 0.6 0.8 1.6 2.4 2.5 3.3 3.1 3.1 3.0 3.1 3.0 2.6 3.6 3.2 3.2 2.6 2.7
3.4 3.5 3.2 1.7 1.0 0.9 0.4 0.3 0.6 0.0 0.4 1.3 1.9 2.7 2.8 1.6 2.0 0.8 0.6 0.1 -0.1 -0.2 0.0 -0.4 -0.3 0.4 0.9 1.1 1.5 2.0 1.9 1.8 3.0 3.1 2.8 3.5 3.4 2.5 2.1 3.7 2.9 3.4 2.5
3.8 4.1 3.9 2.5 1.0 0.8 1.1 0.9 0.7 0.1 0.4 0.7 1.0 1.8 2.3 2.2 2.1 1.6 0.5 1.2 2.0 1.7 0.5 -0.1 -0.6 0.5 1.3 1.3 2.0 2.3 3.2 2.8 3.1 3.2 2.9 3.0 2.8 2.9 3.3 3.3 2.5 4.1 4.4
4.9 4.7 4.0 2.7 1.8 0.6 0.9 0.7 0.2 -0.4 -0.5 -0.3 0.4 0.7 0.6 0.8 0.8 0.5 0.7 0.2 -0.1 -0.2 0.3 0.4 0.4 0.6 1.8 1.8 2.3 1.9 2.7 2.4 2.0 2.5 2.5 2.7 3.0 3.2 3.7 3.9 4.0 3.0 4.5
5.2 4.6 4.2 3.2 2.3 1.3 -0.1 -0.5 -0.1 -0.4 -1.1 -1.3 -0.6 -0.3 -0.1 -0.4 -0.6 -0.4 -0.1 -0.1 -0.5 -0.4 -0.1 0.0 0.3 0.8 1.4 1.3 1.0 1.4 1.9 2.1 1.9 1.5 1.9 2.3 3.6 3.3 3.1 3.4 4.0 4.1 4.3
5.8 5.2 4.7 3.9 2.6 1.7 0.9 -0.4 -0.2 -0.1 -0.0 -0.2 -0.3 -0.3 -0.2 -0.6 -0.6 -0.2 -0.4 -0.2 -0.0 0.1 0.1 0.4 1.0 1.3 1.2 0.5 1.2 1.2 1.0 1.6 1.3 1.4 2.8 3.5 3.1 3.0 2.7 2.9 3.3 3.7 3.2
5.9 5.3 5.0 3.7 3.4 2.6 2.0 0.7 0.2 0.6 0.7 0.4 0.7 0.9 0.7 0.9 1.0 1.1 0.5 0.1 0.5 0.3 0.2 0.5 0.4 0.6 0.5 0.5 0.5 1.0 1.1 1.5 1.6 2.4 2.4 3.1 1.8 2.4 2.9 3.5 2.7 3.0 2.0
4.0 4.0 4.1 3.8 3.2 2.8 2.7 2.3 1.9 1.4 1.6 1.8 1.8 1.9 1.9 2.3 2.4 2.4 2.1 1.6 1.6 1.3 1.0 0.7 0.5 0.3 0.1 0.9 1.1 1.2 1.2 1.5 1.9 1.6 1.6 1.2 1.5 1.1 1.3 2.2 2.1 2.2 2.5
3.3 3.0 3.4 3.3 3.3 3.1 2.7 2.9 2.9 3.6 2.8 2.5 2.9 3.0 3.0 2.7 2.3 2.2 1.7 1.7 2.1 2.1 1.9 1.9 1.8 1.5 1.6 1.1 0.8 1.2 1.3 1.3 1.7 1.6 2.8 3.4 3.6 3.3 2.7 2.4 1.7 1.6 2.4
4.7 4.2 3.5 3.1 3.6 4.0 3.9 4.0 3.9 3.9 4.1 3.7 3.2 3.0 2.8 2.3 2.1 1.6 1.4 1.4 1.5 1.5 1.8 1.5 1.7 1.7 1.2 1.4 1.1 1.1 1.7 1.8 1.9 1.9 2.6 2.1 2.3 1.7 1.8 2.0 1.8 2.6 2.9
5.0 4.9 5.0 5.6 5.6 5.3 5.5 5.6 5.5 5.2 5.5 5.3 4.9 4.5 4.4 3.6 2.7 2.0 2.0 2.1 1.9 1.6 1.4 0.9 1.7 1.5 0.8 0.1 -0.4 1.4 1.3 1.4 2.7 1.9 1.0 0.5 1.0 0.8 0.7 1.7 2.3 3.8 4.0
5.5 5.7 5.9 5.9 5.8 5.8 5.4 5.4 4.9 4.6 4.5 4.6 4.7 4.4 3.4 3.3 3.4 3.5 3.3 2.9 2.4 2.8 1.9 1.6 1.5 1.2 2.0 0.5 -0.1 -0.5 1.4 1.6 1.7 2.5 1.6 1.6 0.5 1.1 1.6 0.9 1.0 1.1 1.7
5.6 4.8 5.0 4.6 4.4 4.9 4.7 4.1 4.2 3.8 3.4 3.5 3.2 3.2 3.1 3.6 4.0 3.7 3.5 3.3 3.4 3.0 2.7 2.8 2.0 2.0 1.8 0.4 0.0 -0.6 1.0 0.6 0.6 -0.4 0.3 0.9 0.7 0.7 1.6 1.4 1.2 1.0 1.2
4.2 4.7 4.8 4.9 4.9 4.7 3.9 4.1 4.5 4.3 4.4 4.1 3.8 3.5 3.7 3.9 4.6 4.0 2.2 3.3 4.1 4.3 3.6 0.8 2.4 2.1 -0.2 -0.3 -0.1 -0.1 0.8 -0.5 -0.7 -0.5 0.6 0.9 0.6 0.3 1.3 0.2 0.4 0.4 1.0
4.8 2.5 2.8 1.8 2.9 3.4 4.8 5.6 5.6 4.3 4.2 3.4 3.5 3.4 2.8 2.7 0.5 2.8 3.2 2.4 3.0 3.2 3.6 2.9 1.0 0.4 0.7 -0.5 0.4 0.3 1.5 1.8 1.4 0.7 1.4 1.7 1.1 1.0 1.2 1.0 0.4 0.7 0.3
1.2 0.9 0.9 2.2 4.0 4.1 3.5 4.2 4.1 3.8 2.9 2.5 1.9 2.1 2.4 2.8 3.3 2.6 3.1 3.4 2.9 2.1 1.5 1.7 0.9 0.1 0.0 0.1 -0.1 0.2 1.7 2.1 1.8 1.8 1.1 1.1 1.8 2.1 1.6 1.3 0.4 0.9 -0.3
2.4 2.9 3.5 4.0 3.3 4.0 4.6 4.6 4.5 3.4 2.5 1.7 1.6 1.8 2.0 2.0 2.4 3.1 2.9 2.6 1.9 1.0 1.0 0.9 1.1 0.7 -0.2 -0.5 0.1 0.4 1.1 1.5 2.6 1.6 1.6 1.1 1.4 2.9 2.3 0.8 0.8 0.3 0.3
5.4 5.0 4.8 5.2 4.7 4.3 4.3 3.8 3.1 2.6 2.3 2.3 2.6 2.3 1.8 1.9 2.2 1.9 2.0 2.7 3.1 3.2 3.2 2.6 1.9 1.6 0.6 0.2 -0.0 0.5 0.8 2.1 2.1 1.8 1.3 1.1 1.3 2.9 2.7 1.6 0.5 -0.5 0.8
5.8 5.4 5.3 4.8 4.3 4.1 3.5 3.0 2.9 2.9 2.8 2.9 2.6 2.3 2.0 2.0 2.0 2.6 2.4 2.6 3.0 3.1 3.4 3.8 4.1 3.0 2.7 1.7 1.5 1.0 0.9 0.4 1.7 1.4 1.6 1.1 1.4 1.9 2.8 2.1 -0.2 0.7 0.7
4.8 4.8 4.8 4.6 4.2 3.7 3.7 3.8 3.6 3.5 3.1 2.9 2.2 1.8 1.4 1.4 1.6 2.1 2.7 3.4 3.9 4.0 4.1 4.6 4.8 4.7 3.7 3.1 2.4 2.0 1.4 1.5 1.2 1.8 1.9 2.3 3.1 1.8 3.0 2.3 0.3 1.0 1.0
3.9 4.1 4.1 4.2 4.1 3.7 3.5 3.6 3.6 3.4 3.2 2.7 2.7 2.7 2.4 2.1 1.6 1.8 2.0 2.8 1.8 2.0 2.7 2.5 3.2 3.9 3.5 2.5 1.7 1.4 1.4 2.3 1.3 2.3 3.0 3.5 2.4 2.5 2.7 1.4 0.3 0.2 1.1
Wind_Speed
18 10 7 4 8 11 12 16 16 16 14 12 11 9 11 7 8 7 13 13 13 14 15 10 10 13 9 10 9 7 8 2 6 5 3 1 2 3 2 4 10 14 14
14 12 7 5 6 10 9 14 14 15 13 10 10 6 7 5 5 5 10 15 16 16 14 11 9 10 8 9 9 8 3 2 8 3 1 3 0 2 2 2 1 6 10
12 11 5 6 6 6 5 12 13 14 13 13 8 6 7 4 3 6 6 7 13 13 14 13 9 10 9 8 9 9 10 5 7 5 2 2 4 2 1 1 4 5 1
5 3 2 4 6 5 3 9 12 14 12 14 11 13 8 7 5 4 3 4 5 5 7 8 9 8 6 8 8 8 7 6 7 4 2 1 2 3 2 1 3 6 6
6 5 2 3 3 3 4 8 11 12 12 12 11 9 8 5 4 4 6 4 4 5 4 3 4 4 3 5 5 4 6 7 5 5 3 1 2 3 2 4 4 3 5
9 6 3 4 3 3 5 7 9 7 10 10 11 11 10 7 6 5 5 4 2 2 3 3 2 3 4 4 4 5 7 8 8 8 7 7 5 4 4 3 3 5 3
9 9 8 6 5 5 5 6 9 8 8 8 8 8 9 9 7 6 4 5 4 3 4 4 4 4 5 4 4 7 8 9 8 10 7 6 5 2 2 4 4 3 2
10 9 8 7 7 5 6 7 8 7 7 7 6 6 7 4 4 6 6 3 3 2 4 6 6 5 6 6 7 6 6 6 7 11 8 6 4 5 4 5 8 3 2
10 9 7 7 7 8 5 7 8 8 7 7 5 6 6 6 5 5 4 3 3 1 1 2 3 3 5 5 6 4 6 7 4 5 5 5 5 5 5 6 10 8 5
12 10 8 8 7 7 7 8 7 8 7 7 6 5 6 6 6 4 4 3 2 1 2 3 5 5 4 4 5 5 5 5 2 3 6 4 6 6 4 5 7 4 6
14 11 9 8 8 8 9 9 8 8 7 6 6 7 6 6 5 4 3 2 1 1 2 3 4 5 5 5 6 7 6 6 6 4 6 7 7 6 5 5 3 4 4
9 8 9 11 10 9 9 9 9 8 6 6 7 6 6 5 5 5 4 4 3 3 4 5 6 5 4 5 6 5 4 6 7 8 7 7 4 6 7 6 7 6 5
8 8 9 8 9 9 8 9 8 7 6 6 6 5 4 4 3 3 3 2 2 3 4 5 6 7 7 6 5 6 6 6 6 7 7 8 8 7 5 7 7 6 5
10 10 11 9 9 9 9 8 6 6 5 3 3 2 1 0 1 1 1 2 3 4 5 6 7 8 7 8 8 7 7 7 7 7 9 11 12 11 10 8 9 7 8
9 10 11 11 11 10 8 8 6 6 6 5 4 2 3 3 4 4 4 4 6 6 7 7 8 8 7 6 9 9 9 7 7 7 8 8 9 12 9 7 8 10 8
14 14 13 13 12 12 11 9 8 7 6 6 4 4 5 4 3 1 3 5 6 6 7 7 8 8 5 9 13 10 7 8 11 9 6 5 7 8 10 6 8 10 13
14 12 9 10 11 10 8 8 6 5 5 4 2 3 6 7 5 3 4 5 5 6 7 7 7 9 10 12 14 14 7 7 9 11 10 7 6 10 9 9 10 5 3
17 16 13 10 8 7 6 6 6 5 5 5 5 5 4 4 4 4 5 6 6 8 7 8 8 10 9 13 14 16 11 8 10 9 10 10 8 8 10 10 8 4 3
12 12 12 10 9 8 6 5 5 5 3 3 3 3 4 5 5 5 5 7 7 8 8 4 11 11 9 12 15 12 8 7 7 6 5 8 9 14 17 12 10 6 1
11 10 10 9 8 4 4 3 3 2 3 3 4 5 4 5 4 7 8 3 6 8 8 11 7 9 11 9 12 13 7 8 6 7 10 12 12 20 21 14 13 10 7
12 10 9 8 8 6 5 4 4 3 2 3 3 3 4 5 7 6 6 8 7 8 9 8 7 7 8 8 14 18 9 9 7 7 7 7 17 22 22 18 13 11 11
13 12 10 8 6 6 6 5 3 1 2 2 4 5 5 5 6 9 8 8 7 7 7 6 10 9 7 12 12 17 21 13 10 11 9 10 19 19 20 15 15 21 14
14 11 10 9 8 7 5 4 1 2 4 5 6 6 6 7 7 8 8 8 7 7 8 8 8 8 5 5 11 14 21 20 10 8 13 14 18 17 13 17 23 18 8
12 10 10 9 7 5 3 0 2 3 4 7 7 7 8 9 8 7 7 7 8 7 9 8 10 8 8 6 6 7 9 15 12 9 10 15 16 15 8 11 13 8 9
10 9 8 6 4 3 1 2 4 4 6 7 7 8 7 9 10 9 9 9 10 10 10 10 10 9 9 9 9 8 7 9 11 9 8 9 10 9 10 8 9 9 9
9 8 7 5 3 2 3 4 4 4 5 7 7 7 8 7 7 9 10 14 16 15 18 19 15 11 13 12 13 17 17 18 16 8 9 11 13 12 12 11 10 9 11
Wind_Direction
279 286 295 294 273 256 228 216 198 187 173 180 178 187 195 188 200 196 191 196 196 201 207 211 209 207 213 213 206 198 195 150 146 114 122 111 130 154 171 223 179 158 171
283 287 308 324 309 287 247 207 195 180 184 179 181 182 180 190 187 181 194 198 202 202 209 208 206 208 214 219 196 186 157 138 174 167 66 155 249 311 87 1 358 139 153
284 306 325 0 347 328 237 192 172 170 176 171 143 112 131 115 142 187 190 193 202 201 210 215 213 212 210 212 210 203 189 189 195 217 156 207 200 154 113 116 20 54 41
272 262 4 17 2 360 117 147 154 165 163 154 162 163 174 176 187 167 149 168 175 179 209 218 212 216 208 216 207 199 201 174 192 213 205 226 139 176 177 135 128 91 60
214 194 113 65 19 28 100 125 140 149 146 159 167 165 172 167 147 145 158 147 150 146 153 199 208 204 195 214 206 177 198 194 187 188 170 173 116 104 148 156 180 107 127
189 180 147 113 94 96 109 113 121 123 150 163 170 172 165 160 145 143 157 159 166 156 176 174 184 207 208 197 199 195 205 210 208 195 186 185 182 174 164 135 145 127 117
186 186 174 149 137 129 117 116 131 133 139 150 159 170 168 171 170 163 157 167 168 193 188 169 178 191 215 207 199 212 209 199 200 198 201 198 198 138 119 124 128 137 132
194 194 184 154 144 130 127 120 121 114 116 115 116 124 140 144 141 153 154 170 197 203 178 182 198 199 212 202 204 217 230 218 211 199 194 193 177 154 163 153 141 122 160
189 195 182 151 142 131 98 103 101 92 87 92 92 83 80 81 85 80 86 113 127 109 269 239 231 221 233 228 227 212 201 202 185 194 172 158 173 170 171 169 171 153 159
185 186 179 148 117 117 113 84 87 94 91 88 95 96 95 91 92 90 82 68 61 134 180 211 230 235 231 217 206 202 188 178 169 165 160 165 176 176 158 170 182 180 156
186 182 163 140 122 123 118 110 103 98 92 95 85 87 86 87 87 92 102 106 144 212 247 249 248 226 205 198 207 202 181 180 174 179 189 196 181 179 163 159 178 163 124
175 163 160 149 142 126 120 114 112 106 102 102 106 108 114 122 119 113 121 173 193 191 202 210 214 220 221 210 208 192 176 174 179 185 177 183 165 170 165 165 157 153 150
139 131 136 143 136 130 120 110 108 119 133 131 121 120 123 136 139 155 174 183 231 238 240 233 228 213 193 213 203 187 186 193 198 178 173 165 164 160 165 155 147 145 139
156 149 139 129 127 126 124 123 126 128 126 114 113 109 112 323 263 232 220 254 264 255 239 244 241 236 221 203 207 203 198 192 199 186 189 185 186 174 170 159 153 146 138
154 146 134 130 125 116 105 101 108 121 139 151 152 197 223 218 212 213 223 226 228 229 237 239 241 227 221 225 214 210 202 198 200 203 199 192 190 171 173 165 162 153 142
157 146 135 132 131 130 129 132 136 131 136 126 130 153 173 162 182 228 249 243 248 253 248 238 246 242 224 222 216 219 206 193 203 201 200 175 168 168 167 179 165 179 158
144 136 132 131 129 127 132 127 121 107 99 99 78 43 27 19 357 301 276 277 266 262 251 246 241 241 241 221 216 208 213 204 207 202 191 195 181 167 169 150 123 108 130
159 147 146 138 117 111 87 81 64 57 41 31 16 9 3 325 319 313 291 292 286 276 256 258 250 251 243 223 213 204 211 210 206 189 187 180 185 169 161 148 138 122 84
153 144 131 123 111 97 88 74 48 32 8 348 333 331 324 306 305 311 296 288 295 284 266 219 239 239 242 220 216 198 208 207 198 175 190 177 174 160 155 141 137 139 127
144 115 104 95 84 78 111 166 217 262 277 306 310 309 298 283 296 302 304 278 263 261 269 269 233 230 251 225 220 197 202 216 216 199 163 204 188 172 163 160 153 155 174
138 119 112 136 173 177 167 192 200 223 231 264 270 295 311 310 299 293 279 284 272 264 263 257 249 231 226 240 213 206 204 215 200 208 187 194 200 177 172 168 163 162 146
151 151 160 184 175 167 174 182 225 226 277 307 319 306 308 308 301 296 296 283 271 260 264 256 270 260 236 228 221 211 215 209 202 201 192 181 189 186 177 161 149 141 136
167 169 168 159 160 166 170 188 213 324 325 320 310 304 297 300 295 290 285 289 283 274 270 257 255 261 244 235 230 224 219 215 214 199 174 155 180 185 177 163 150 146 148
153 153 154 158 161 159 132 27 314 305 294 290 298 310 304 300 293 291 288 287 281 271 267 263 261 255 249 228 221 219 218 212 205 189 171 162 170 166 180 163 153 156 163
143 154 161 161 152 147 243 285 267 278 286 296 302 304 304 306 304 294 290 280 269 262 268 265 262 259 254 245 227 206 197 200 200 171 152 155 164 159 170 173 170 162 164
148 147 148 157 170 213 259 269 288 299 301 295 292 289 288 286 283 286 287 265 262 258 261 262 256 267 267 250 217 205 207 201 171 172 176 182 170 176 174 179 172 165 174